Overview Statistics Trail Chart Weather Telemetry Raw packets
 

This is the latest recevied weather packets stored in our database for station/object N7WGJ. If no packets are shown the sender has not sent any weather packets the latest 10 day(s).

<< 1 2 3 4 5 >>
Time Temp. Humidity Pressure Rain* Wind** Luminosity Snow
1788670906 15° C 77% 1017 hPa 0 mm - - -
1788670299 15° C 77% 1017 hPa 0 mm - - -
1788669697 15° C 77% 1017.1 hPa 0 mm - - -
1788669098 15° C 77% 1017.1 hPa 0 mm - - -
1788668497 15.56° C 76% 1017.1 hPa 0 mm - - -
1788667900 15.56° C 76% 1017.1 hPa 0 mm - - -
1788667296 15.56° C 75% 1017.2 hPa 0 mm - - -
1788666688 15.56° C 74% 1017.2 hPa 0 mm - - -
1788666092 16.11° C 74% 1017.1 hPa 0 mm - - -
1788665496 16.11° C 72% 1017 hPa 0 mm - - -
1788664901 16.67° C 71% 1016.9 hPa 0 mm - - -
1788664289 17.22° C 69% 1016.8 hPa 0 mm - - -
1788663711 17.22° C 68% 1016.8 hPa 0 mm - - -
1788663088 17.78° C 67% 1016.8 hPa 0 mm - - -
1788662490 18.33° C 66% 1016.9 hPa 0 mm - - -
1788661890 18.33° C 65% 1016.9 hPa 0 mm - - -
1788661294 18.89° C 64% 1016.8 hPa 0 mm - - -
1788660721 18.89° C 63% 1016.7 hPa 0 mm - - -
1788660114 19.44° C 62% 1016.8 hPa 0 mm - - -
1788659487 19.44° C 61% 1016.8 hPa 0 mm - - -
1788658883 20° C 60% 1016.7 hPa 0 mm - - -
1788658303 20° C 60% 1016.8 hPa 0 mm - - -
1788657684 20.56° C 58% 1016.8 hPa 0 mm - - -
1788657086 20.56° C 55% 1016.6 hPa 0 mm - - -
1788656499 20.56° C 57% 1016.6 hPa 0 mm - - -

* Rain latest hour (hover to see other rain measurements)
** Current wind speed in m/s (hover to see current wind gust speed)